Year,Month,Day,Hour,Minute,Value (Times are PST for temperature in C)
2016,06,19,00,00,13.50
2016,06,19,00,01,12.60
2016,06,19,00,02,12.60
2016,06,19,00,11,17.20
2016,06,19,00,15,16.50
2016,06,19,00,16,12.90
2016,06,19,00,17,12.60
2016,06,19,00,18,12.30
2016,06,19,00,19,12.90
2016,06,19,00,20,12.80
2016,06,19,00,21,12.80
2016,06,19,00,22,12.80
2016,06,19,00,23,12.60
2016,06,19,00,24,12.10
2016,06,19,00,25,12.30
2016,06,19,00,26,13.20
2016,06,19,00,27,13.30
2016,06,19,00,28,12.90
2016,06,19,00,29,12.30
2016,06,19,00,30,12.20
2016,06,19,00,31,13.00
2016,06,19,00,32,13.50
2016,06,19,00,33,12.60
2016,06,19,00,34,12.40
2016,06,19,00,35,12.00
2016,06,19,00,36,12.00
2016,06,19,00,37,12.00
2016,06,19,00,38,12.00
2016,06,19,00,39,12.20
2016,06,19,00,40,12.10
2016,06,19,00,41,12.20
2016,06,19,00,42,12.00
2016,06,19,00,43,11.80
2016,06,19,00,44,11.80
2016,06,19,00,45,11.80
2016,06,19,00,46,12.00
2016,06,19,00,47,12.00
2016,06,19,00,48,11.90
2016,06,19,00,49,11.90
2016,06,19,00,50,11.90
2016,06,19,00,51,11.90
2016,06,19,00,52,11.90
2016,06,19,00,53,11.80
2016,06,19,00,54,11.70
2016,06,19,00,55,11.80
2016,06,19,00,56,11.70
2016,06,19,00,57,11.70
2016,06,19,00,58,11.70
2016,06,19,00,59,11.70
2016,06,19,01,00,11.70
2016,06,19,01,01,11.70
2016,06,19,01,02,11.70
2016,06,19,01,03,11.80
2016,06,19,01,04,11.80
2016,06,19,01,05,11.90
2016,06,19,01,06,11.80
2016,06,19,01,07,11.70
2016,06,19,01,08,11.80
2016,06,19,01,09,11.80
2016,06,19,01,10,11.70
2016,06,19,01,11,11.70
2016,06,19,01,12,11.70
2016,06,19,01,13,11.70
2016,06,19,01,14,11.70
2016,06,19,01,15,11.70
2016,06,19,01,16,11.70
2016,06,19,01,17,11.70
2016,06,19,01,18,11.70
2016,06,19,01,19,11.70
2016,06,19,01,20,11.70
2016,06,19,01,21,11.70
2016,06,19,01,22,11.60
2016,06,19,01,23,11.60
2016,06,19,01,24,11.60
2016,06,19,01,25,11.60
2016,06,19,01,26,11.60
2016,06,19,01,27,11.60
2016,06,19,01,28,11.60
2016,06,19,01,29,11.50
2016,06,19,01,30,11.50
2016,06,19,01,31,11.50
2016,06,19,01,32,11.40
2016,06,19,01,33,11.50
2016,06,19,01,34,11.50
2016,06,19,01,35,11.50
2016,06,19,01,36,11.50
2016,06,19,01,37,11.50
2016,06,19,01,38,11.60
2016,06,19,01,39,11.60
2016,06,19,01,40,11.60
2016,06,19,01,41,11.60
2016,06,19,01,42,11.60
2016,06,19,01,43,11.60
2016,06,19,01,44,11.60
2016,06,19,01,45,11.70
2016,06,19,01,46,11.70
2016,06,19,01,47,11.70
2016,06,19,01,48,11.70
2016,06,19,01,49,11.70
2016,06,19,01,50,11.80
2016,06,19,01,51,11.80
2016,06,19,01,52,11.80
2016,06,19,01,53,11.80
2016,06,19,01,54,11.90
2016,06,19,01,55,11.90
2016,06,19,01,56,11.90
2016,06,19,01,57,11.90
2016,06,19,01,58,11.90
2016,06,19,01,59,11.90
2016,06,19,02,00,11.90
2016,06,19,02,01,11.90
2016,06,19,02,02,12.00
2016,06,19,02,03,12.00
2016,06,19,02,04,12.00
2016,06,19,02,05,12.00
2016,06,19,02,06,12.10
2016,06,19,02,07,12.00
2016,06,19,02,08,12.10
2016,06,19,02,09,12.00
2016,06,19,02,10,12.00
2016,06,19,02,11,11.90
2016,06,19,02,12,11.90
2016,06,19,02,13,11.90
2016,06,19,02,14,11.90
2016,06,19,02,15,11.90
2016,06,19,02,16,11.90
2016,06,19,02,17,11.80
2016,06,19,02,18,11.80
2016,06,19,02,19,11.80
2016,06,19,02,20,11.80
2016,06,19,02,21,11.80
2016,06,19,02,22,11.80
2016,06,19,02,23,11.80
2016,06,19,02,24,11.80
2016,06,19,02,25,11.70
2016,06,19,02,26,11.70
2016,06,19,02,27,11.80
2016,06,19,02,28,11.80
2016,06,19,02,29,11.80
2016,06,19,02,30,11.70
2016,06,19,02,31,11.80
2016,06,19,02,32,11.70
2016,06,19,02,33,11.70
2016,06,19,02,34,11.70
2016,06,19,02,35,11.60
2016,06,19,02,36,11.60
2016,06,19,02,37,11.60
2016,06,19,02,38,11.60
2016,06,19,02,39,11.50
2016,06,19,02,40,11.50
2016,06,19,02,41,11.40
2016,06,19,02,42,11.40
2016,06,19,02,43,11.40
2016,06,19,02,44,11.40
2016,06,19,02,45,11.40
2016,06,19,02,46,11.40
2016,06,19,02,47,11.40
2016,06,19,02,48,11.40
2016,06,19,02,49,11.40
2016,06,19,02,50,11.40
2016,06,19,02,51,11.50
2016,06,19,02,52,11.50
2016,06,19,02,53,11.50
2016,06,19,02,54,11.50
2016,06,19,02,55,11.50
2016,06,19,02,56,11.60
2016,06,19,02,57,11.60
2016,06,19,02,58,11.60
2016,06,19,02,59,11.60
2016,06,19,03,00,11.60
2016,06,19,03,01,11.60
2016,06,19,03,02,11.60
2016,06,19,03,03,11.60
2016,06,19,03,04,11.60
2016,06,19,03,05,11.60
2016,06,19,03,06,11.60
2016,06,19,03,07,11.60
2016,06,19,03,08,11.60
2016,06,19,03,09,11.60
2016,06,19,03,10,11.60
2016,06,19,03,11,11.60
2016,06,19,03,12,11.60
2016,06,19,03,13,11.60
2016,06,19,03,14,11.60
2016,06,19,03,15,11.60
2016,06,19,03,16,11.60
2016,06,19,03,17,11.60
2016,06,19,03,18,11.60
2016,06,19,03,19,11.60
2016,06,19,03,20,11.60
2016,06,19,03,21,11.60
2016,06,19,03,22,11.70
2016,06,19,03,23,11.60
2016,06,19,03,24,11.60
2016,06,19,03,25,11.60
2016,06,19,03,26,11.60
2016,06,19,03,27,11.60
2016,06,19,03,28,11.60
2016,06,19,03,29,11.60
2016,06,19,03,30,11.60
2016,06,19,03,31,11.60
2016,06,19,03,32,11.60
2016,06,19,03,33,11.60
2016,06,19,03,34,11.60
2016,06,19,03,35,11.60
2016,06,19,03,36,11.60
2016,06,19,03,37,11.60
2016,06,19,03,38,11.60
2016,06,19,03,39,11.60
2016,06,19,03,40,11.60
2016,06,19,03,41,11.50
2016,06,19,03,42,11.50
2016,06,19,03,43,11.50
2016,06,19,03,44,11.50
2016,06,19,03,45,11.40
2016,06,19,03,46,11.40
2016,06,19,03,47,11.40
2016,06,19,03,48,11.40
2016,06,19,03,49,11.30
2016,06,19,03,50,11.30
2016,06,19,03,51,11.30
2016,06,19,03,52,11.30
2016,06,19,03,53,11.20
2016,06,19,03,54,11.30
2016,06,19,03,55,11.30
2016,06,19,03,56,11.30
2016,06,19,03,57,11.30
2016,06,19,03,58,11.30
2016,06,19,03,59,11.30
2016,06,19,04,00,11.30
2016,06,19,04,01,11.30
2016,06,19,04,02,11.30
2016,06,19,04,03,11.30
2016,06,19,04,04,11.30
2016,06,19,04,05,11.30
2016,06,19,04,06,11.30
2016,06,19,04,07,11.30
2016,06,19,04,08,11.30
2016,06,19,04,09,11.30
2016,06,19,04,10,11.30
2016,06,19,04,11,11.30
2016,06,19,04,12,11.30
2016,06,19,04,13,11.30
2016,06,19,04,14,11.30
2016,06,19,04,15,11.30
2016,06,19,04,16,11.30
2016,06,19,04,17,11.30
2016,06,19,04,18,11.30
2016,06,19,04,19,11.30
2016,06,19,04,20,11.40
2016,06,19,04,21,11.40
2016,06,19,04,22,11.40
2016,06,19,04,23,11.40
2016,06,19,04,24,11.30
2016,06,19,04,25,11.30
2016,06,19,04,26,11.40
2016,06,19,04,27,11.40
2016,06,19,04,28,11.40
2016,06,19,04,29,11.40
2016,06,19,04,30,11.40
2016,06,19,04,31,11.40
2016,06,19,04,32,11.40
2016,06,19,04,33,11.40
2016,06,19,04,34,11.40
2016,06,19,04,35,11.40
2016,06,19,04,36,11.40
2016,06,19,04,37,11.40
2016,06,19,04,38,11.40
2016,06,19,04,39,11.40
2016,06,19,04,40,11.40
2016,06,19,04,41,11.40
2016,06,19,04,42,11.40
2016,06,19,04,43,11.40
2016,06,19,04,44,11.40
2016,06,19,04,45,11.40
2016,06,19,04,46,11.40
2016,06,19,04,47,11.40
2016,06,19,04,48,11.40
2016,06,19,04,49,11.40
2016,06,19,04,50,11.40
2016,06,19,04,51,11.40
2016,06,19,04,52,11.40
2016,06,19,04,53,11.40
2016,06,19,04,54,11.40
2016,06,19,04,55,11.40
2016,06,19,04,56,11.40
2016,06,19,04,57,11.40
2016,06,19,04,58,11.40
2016,06,19,04,59,11.40
2016,06,19,05,00,11.40
2016,06,19,05,01,11.40
2016,06,19,05,02,11.40
2016,06,19,05,03,11.40
2016,06,19,05,04,11.40
2016,06,19,05,05,11.40
2016,06,19,05,06,11.40
2016,06,19,05,07,11.40
2016,06,19,05,08,11.30
2016,06,19,05,09,11.30
2016,06,19,05,10,11.30
2016,06,19,05,11,11.30
2016,06,19,05,12,11.30
2016,06,19,05,13,11.30
2016,06,19,05,14,11.30
2016,06,19,05,15,11.30
2016,06,19,05,16,11.30
2016,06,19,05,17,11.30
2016,06,19,05,18,11.30
2016,06,19,05,19,11.30
2016,06,19,05,20,11.30
2016,06,19,05,21,11.30
2016,06,19,05,22,11.30
2016,06,19,05,23,11.40
2016,06,19,05,24,11.40
2016,06,19,05,25,11.40
2016,06,19,05,26,11.40
2016,06,19,05,27,11.40
2016,06,19,05,28,11.40
2016,06,19,05,29,11.40
2016,06,19,05,30,11.40
2016,06,19,05,31,11.40
2016,06,19,05,32,11.40
2016,06,19,05,33,11.40
2016,06,19,05,34,11.40
2016,06,19,05,35,11.40
2016,06,19,05,36,11.40
2016,06,19,05,37,11.40
2016,06,19,05,38,11.40
2016,06,19,05,39,11.40
2016,06,19,05,40,11.40
2016,06,19,05,41,11.40
2016,06,19,05,42,11.40
2016,06,19,05,43,11.40
2016,06,19,05,44,11.40
2016,06,19,05,45,11.40
2016,06,19,05,46,11.50
2016,06,19,05,47,11.50
2016,06,19,05,48,11.40
2016,06,19,05,49,11.50
2016,06,19,05,50,11.40
2016,06,19,05,51,11.40
2016,06,19,05,52,11.40
2016,06,19,05,53,11.50
2016,06,19,05,54,11.50
2016,06,19,05,55,11.50
2016,06,19,05,56,11.50
2016,06,19,05,57,11.50
2016,06,19,05,58,11.50
2016,06,19,05,59,11.50
2016,06,19,06,00,11.50
2016,06,19,06,01,11.50
2016,06,19,06,02,11.50
2016,06,19,06,03,11.50
2016,06,19,06,04,11.50
2016,06,19,06,05,11.50
2016,06,19,06,06,11.50
2016,06,19,06,07,11.50
2016,06,19,06,08,11.50
2016,06,19,06,09,11.50
2016,06,19,06,10,11.50
2016,06,19,06,11,11.50
2016,06,19,06,12,11.50
2016,06,19,06,13,11.50
2016,06,19,06,14,11.50
2016,06,19,06,15,11.50
2016,06,19,06,16,11.50
2016,06,19,06,17,11.50
2016,06,19,06,18,11.50
2016,06,19,06,19,11.40
2016,06,19,06,20,11.40
2016,06,19,06,21,11.40
2016,06,19,06,22,11.40
2016,06,19,06,23,11.40
2016,06,19,06,24,11.40
2016,06,19,06,25,11.40
2016,06,19,06,26,11.40
2016,06,19,06,27,11.40
2016,06,19,06,28,11.40
2016,06,19,06,29,11.40
2016,06,19,06,30,11.40
2016,06,19,06,31,11.40
2016,06,19,06,32,11.40
2016,06,19,06,33,11.30
2016,06,19,06,34,11.40
2016,06,19,06,35,11.30
2016,06,19,06,36,11.30
2016,06,19,06,37,11.30
2016,06,19,06,38,11.30
2016,06,19,06,39,11.30
2016,06,19,06,40,11.30
2016,06,19,06,41,11.30
2016,06,19,06,42,11.30
2016,06,19,06,43,11.30
2016,06,19,06,44,11.30
2016,06,19,06,45,11.30
2016,06,19,06,46,11.30
2016,06,19,06,47,11.30
2016,06,19,06,48,11.30
2016,06,19,06,49,11.30
2016,06,19,06,50,11.30
2016,06,19,06,51,11.30
2016,06,19,06,52,11.30
2016,06,19,06,53,11.30
2016,06,19,06,54,11.30
2016,06,19,06,55,11.30
2016,06,19,06,56,11.30
2016,06,19,06,57,11.30
2016,06,19,06,58,11.30
2016,06,19,06,59,11.30
2016,06,19,07,00,11.30
2016,06,19,07,01,11.30
2016,06,19,07,02,11.30
2016,06,19,07,03,11.30
2016,06,19,07,04,11.30
2016,06,19,07,05,11.30
2016,06,19,07,06,11.30
2016,06,19,07,07,11.30
2016,06,19,07,08,11.40
2016,06,19,07,09,11.40
2016,06,19,07,10,11.40
2016,06,19,07,11,11.40
2016,06,19,07,12,11.40
2016,06,19,07,13,11.40
2016,06,19,07,14,11.40
2016,06,19,07,15,11.40
2016,06,19,07,16,11.50
2016,06,19,07,17,11.50
2016,06,19,07,18,11.50
2016,06,19,07,19,11.50
2016,06,19,07,20,11.50
2016,06,19,07,21,11.60
2016,06,19,07,22,11.50
2016,06,19,07,23,11.60
2016,06,19,07,24,11.60
2016,06,19,07,25,11.60
2016,06,19,07,26,11.60
2016,06,19,07,27,11.60
2016,06,19,07,28,11.60
2016,06,19,07,29,11.60
2016,06,19,07,30,11.60
2016,06,19,07,31,11.60
2016,06,19,07,32,11.60
2016,06,19,07,33,11.60
2016,06,19,07,34,11.60
2016,06,19,07,35,11.60
2016,06,19,07,36,11.60
2016,06,19,07,37,11.60
2016,06,19,07,38,11.70
2016,06,19,07,39,11.70
2016,06,19,07,40,11.70
2016,06,19,07,41,11.70
2016,06,19,07,42,11.70
2016,06,19,07,43,11.70
2016,06,19,07,44,11.70
2016,06,19,07,45,11.70
2016,06,19,07,46,11.70
2016,06,19,07,47,11.70
2016,06,19,07,48,11.80
2016,06,19,07,49,11.80
2016,06,19,07,50,11.80
2016,06,19,07,51,11.80
2016,06,19,07,52,11.80
2016,06,19,07,53,11.90
2016,06,19,07,54,11.90
2016,06,19,07,55,11.80
2016,06,19,07,56,11.90
2016,06,19,07,57,12.00
2016,06,19,07,58,12.00
2016,06,19,07,59,12.00
2016,06,19,08,00,12.00
2016,06,19,08,01,12.00
2016,06,19,08,02,12.00
2016,06,19,08,03,12.00
2016,06,19,08,04,12.00
2016,06,19,08,05,12.10
2016,06,19,08,06,12.10
2016,06,19,08,07,12.10
2016,06,19,08,08,12.10
2016,06,19,08,09,12.10
2016,06,19,08,10,12.10
2016,06,19,08,11,12.10
2016,06,19,08,12,12.10
2016,06,19,08,13,12.10
2016,06,19,08,14,12.10
2016,06,19,08,15,12.10
2016,06,19,08,16,12.20
2016,06,19,08,17,12.30
2016,06,19,08,18,12.30
2016,06,19,08,19,12.30
2016,06,19,08,20,12.30
2016,06,19,08,21,12.30
2016,06,19,08,22,12.30
2016,06,19,08,23,12.30
2016,06,19,08,24,12.40
2016,06,19,08,25,12.40
2016,06,19,08,26,12.40
2016,06,19,08,27,12.50
2016,06,19,08,28,12.60
2016,06,19,08,29,12.60
2016,06,19,08,30,12.40
2016,06,19,08,31,12.40
2016,06,19,08,32,12.20
2016,06,19,08,33,12.50
2016,06,19,08,34,12.70
2016,06,19,08,35,12.40
2016,06,19,08,36,12.60
2016,06,19,08,37,12.50
2016,06,19,08,38,12.40
2016,06,19,08,39,12.40
2016,06,19,08,40,12.40
2016,06,19,08,41,12.60
2016,06,19,08,42,12.90
2016,06,19,08,43,12.80
2016,06,19,08,44,12.90
2016,06,19,08,45,13.10
2016,06,19,08,46,13.60
2016,06,19,08,47,13.80
2016,06,19,08,48,13.80
2016,06,19,08,49,14.20
2016,06,19,08,50,13.50
2016,06,19,08,51,13.80
2016,06,19,08,52,14.20
2016,06,19,08,53,13.90
2016,06,19,08,54,14.00
2016,06,19,08,55,14.40
2016,06,19,08,56,14.90
2016,06,19,08,58,16.80
2016,06,19,08,59,13.60
2016,06,19,09,00,13.20
2016,06,19,09,01,12.80
2016,06,19,09,02,12.80
2016,06,19,09,03,12.90
2016,06,19,09,04,13.10
2016,06,19,09,05,12.90
2016,06,19,09,06,12.90
2016,06,19,09,07,12.80
2016,06,19,09,08,12.90
2016,06,19,09,09,13.10
2016,06,19,09,10,13.30
2016,06,19,09,11,14.90
2016,06,19,09,12,16.40
2016,06,19,09,30,16.20
2016,06,19,09,31,16.80
2016,06,19,09,34,16.90
2016,06,19,09,35,15.40
2016,06,19,09,36,15.00
2016,06,19,09,37,14.90
2016,06,19,09,38,14.80
2016,06,19,09,39,15.00
2016,06,19,09,40,14.70
2016,06,19,09,41,14.60
2016,06,19,09,42,14.30
2016,06,19,09,43,14.90
2016,06,19,09,44,14.80
2016,06,19,09,45,15.50
2016,06,19,09,46,16.10
2016,06,19,09,47,15.70
2016,06,19,09,48,16.00
2016,06,19,09,49,15.60
2016,06,19,09,50,16.80
2016,06,19,09,51,15.10
2016,06,19,09,52,14.20
2016,06,19,09,53,14.70
2016,06,19,09,54,15.80
2016,06,19,09,56,17.20
2016,06,19,10,02,17.10
2016,06,19,10,03,15.90
2016,06,19,10,04,16.00
2016,06,19,10,23,16.20
2016,06,19,10,24,17.10
2016,06,19,10,27,17.10
2016,06,19,10,29,17.00
2016,06,19,10,30,15.00
2016,06,19,10,31,14.90
2016,06,19,10,32,15.60
2016,06,19,10,33,17.10
2016,06,19,11,51,14.90
2016,06,19,11,52,15.60
2016,06,19,11,53,15.10
2016,06,19,11,54,15.40
2016,06,19,11,58,16.60
2016,06,19,11,59,16.60
2016,06,19,13,46,16.80
2016,06,19,13,47,16.90
2016,06,19,14,08,16.90
2016,06,19,15,21,17.20
2016,06,19,15,22,16.90
2016,06,19,15,23,16.90
2016,06,19,15,24,17.00
2016,06,19,15,25,16.90
2016,06,19,15,26,16.90
2016,06,19,15,27,17.00
2016,06,19,15,28,16.90
2016,06,19,15,29,17.00
2016,06,19,15,30,17.00
2016,06,19,15,31,16.90
2016,06,19,15,32,16.90
2016,06,19,15,33,16.90
2016,06,19,15,34,16.90
2016,06,19,15,35,17.00
2016,06,19,15,36,17.00
2016,06,19,15,37,17.00
2016,06,19,15,38,17.10
2016,06,19,15,39,17.10
2016,06,19,15,40,17.10
2016,06,19,15,41,17.10
2016,06,19,15,42,17.10
2016,06,19,15,43,17.20
2016,06,19,15,44,17.20
2016,06,19,15,45,17.20
2016,06,19,15,46,17.20
2016,06,19,15,47,17.20
2016,06,19,15,48,17.10
2016,06,19,15,49,17.10
2016,06,19,15,50,17.10
2016,06,19,15,51,17.00
2016,06,19,15,52,17.00
2016,06,19,15,53,17.10
2016,06,19,15,54,17.10
2016,06,19,15,55,17.10
2016,06,19,15,56,17.10
2016,06,19,15,57,17.10
2016,06,19,15,58,17.20
2016,06,19,15,59,17.20
2016,06,19,16,00,17.30
2016,06,19,16,01,17.30
2016,06,19,16,02,17.30
2016,06,19,16,03,17.40
2016,06,19,16,04,17.40
2016,06,19,16,05,17.40
2016,06,19,16,06,17.40
2016,06,19,16,07,17.40
2016,06,19,16,08,17.40
2016,06,19,16,09,17.50
2016,06,19,16,10,17.50
2016,06,19,16,11,17.50
2016,06,19,16,12,17.40
2016,06,19,16,13,17.40
2016,06,19,16,14,17.30
2016,06,19,16,15,17.30
2016,06,19,16,16,17.20
2016,06,19,16,17,17.20
2016,06,19,16,18,17.10
2016,06,19,16,19,17.10
2016,06,19,16,20,17.10
2016,06,19,16,21,17.10
2016,06,19,16,22,17.10
2016,06,19,16,23,17.10
2016,06,19,16,24,17.10
2016,06,19,16,25,17.10
2016,06,19,16,26,17.10
2016,06,19,16,27,17.20
2016,06,19,16,28,17.20
2016,06,19,16,29,17.20
2016,06,19,16,30,17.20
2016,06,19,16,31,17.20
2016,06,19,16,32,17.30
2016,06,19,16,33,17.30
2016,06,19,16,34,17.40
2016,06,19,16,35,17.40
2016,06,19,16,36,17.50
2016,06,19,16,37,17.50
2016,06,19,16,38,17.50
2016,06,19,16,41,17.40
2016,06,19,16,42,17.30
2016,06,19,16,43,17.30
2016,06,19,16,44,17.30
2016,06,19,16,45,17.30
2016,06,19,16,46,17.30
2016,06,19,16,47,17.20
2016,06,19,16,48,17.20
2016,06,19,16,49,17.20
2016,06,19,16,50,17.20
2016,06,19,16,51,17.20
2016,06,19,16,52,17.10
2016,06,19,16,53,17.10
2016,06,19,16,54,17.10
2016,06,19,16,55,17.00
2016,06,19,16,56,17.00
2016,06,19,16,57,17.00
2016,06,19,16,58,17.00
2016,06,19,16,59,17.10
2016,06,19,17,00,17.20
2016,06,19,17,01,17.30
2016,06,19,17,02,17.30
2016,06,19,17,03,17.40
2016,06,19,17,04,17.40
2016,06,19,17,05,17.40
2016,06,19,17,06,17.30
2016,06,19,17,07,17.30
2016,06,19,17,08,17.20
2016,06,19,17,09,17.30
2016,06,19,17,10,17.30
2016,06,19,17,11,17.30
2016,06,19,17,12,17.40
2016,06,19,17,13,17.50
2016,06,19,17,14,17.50
2016,06,19,17,15,17.50
2016,06,19,17,16,17.40
2016,06,19,17,17,17.40
2016,06,19,17,18,17.40
2016,06,19,17,19,17.20
2016,06,19,17,20,17.20
2016,06,19,17,21,17.20
2016,06,19,17,22,17.10
2016,06,19,17,23,17.10
2016,06,19,17,24,17.00
2016,06,19,17,25,17.00
2016,06,19,17,26,17.00
2016,06,19,17,27,17.10
2016,06,19,17,28,17.10
2016,06,19,17,29,17.20
2016,06,19,17,30,17.20
2016,06,19,17,31,17.30
2016,06,19,17,32,17.30
2016,06,19,17,33,17.40
2016,06,19,17,34,17.40
2016,06,19,17,36,17.50
2016,06,19,17,37,17.40
2016,06,19,17,38,17.40
2016,06,19,17,39,17.40
2016,06,19,17,40,17.40
2016,06,19,17,41,17.30
2016,06,19,17,42,17.30
2016,06,19,17,43,17.30
2016,06,19,17,44,17.20
2016,06,19,17,45,17.20
2016,06,19,17,46,17.10
2016,06,19,17,47,17.00
2016,06,19,17,48,17.00
2016,06,19,17,49,17.00
2016,06,19,17,50,17.00
2016,06,19,17,51,17.10
2016,06,19,17,52,17.10
2016,06,19,17,53,17.10
2016,06,19,17,54,17.10
2016,06,19,17,55,17.10
2016,06,19,17,56,17.10
2016,06,19,17,57,17.10
2016,06,19,17,58,17.10
2016,06,19,17,59,17.20
2016,06,19,18,00,17.20
2016,06,19,18,01,17.20
2016,06,19,18,02,17.20
2016,06,19,18,03,17.30
2016,06,19,18,04,17.30
2016,06,19,18,05,17.30
2016,06,19,18,06,17.30
2016,06,19,18,07,17.40
2016,06,19,18,08,17.40
2016,06,19,18,09,17.40
2016,06,19,18,10,17.40
2016,06,19,18,11,17.40
2016,06,19,18,12,17.40
2016,06,19,18,13,17.40
2016,06,19,18,14,17.40
2016,06,19,18,15,17.30
2016,06,19,18,16,17.40
2016,06,19,18,17,17.40
2016,06,19,18,18,17.30
2016,06,19,18,19,17.30
2016,06,19,18,20,17.30
2016,06,19,18,21,17.40
2016,06,19,18,22,17.50
2016,06,19,18,23,17.50
2016,06,19,18,24,17.40
2016,06,19,18,25,17.30
2016,06,19,18,26,17.20
2016,06,19,18,27,17.10
2016,06,19,18,28,17.10
2016,06,19,18,29,17.00
2016,06,19,18,30,16.90
2016,06,19,18,31,16.80
2016,06,19,18,32,16.80
2016,06,19,18,33,16.80
2016,06,19,18,34,16.70
2016,06,19,18,35,16.60
2016,06,19,18,36,16.60
2016,06,19,18,37,16.60
2016,06,19,18,38,16.50
2016,06,19,18,39,16.50
2016,06,19,18,40,16.50
2016,06,19,18,41,16.50
2016,06,19,18,42,16.50
2016,06,19,18,43,16.60
2016,06,19,18,44,16.60
2016,06,19,18,45,16.60
2016,06,19,18,46,16.60
2016,06,19,18,47,16.70
2016,06,19,18,48,16.60
2016,06,19,18,49,16.50
2016,06,19,18,50,16.40
2016,06,19,18,51,16.30
2016,06,19,18,52,16.30
2016,06,19,18,53,16.30
2016,06,19,18,54,16.30
2016,06,19,18,55,16.30
2016,06,19,18,56,16.30
2016,06,19,18,57,16.20
2016,06,19,18,58,16.30
2016,06,19,18,59,16.10
2016,06,19,19,00,16.10
2016,06,19,19,01,16.10
2016,06,19,19,02,16.10
2016,06,19,19,03,16.10
2016,06,19,19,04,16.10
2016,06,19,19,05,16.20
2016,06,19,19,06,16.10
2016,06,19,19,07,16.10
2016,06,19,19,08,16.00
2016,06,19,19,09,16.00
2016,06,19,19,10,16.10
2016,06,19,19,11,16.10
2016,06,19,19,12,16.10
2016,06,19,19,13,16.00
2016,06,19,19,14,15.80
2016,06,19,19,15,15.90
2016,06,19,19,16,15.90
2016,06,19,19,17,16.00
2016,06,19,19,18,16.00
2016,06,19,19,19,15.80
2016,06,19,19,20,15.90
2016,06,19,19,21,15.80
2016,06,19,19,22,15.80
2016,06,19,19,23,15.90
2016,06,19,19,24,15.90
2016,06,19,19,25,15.90
2016,06,19,19,26,16.00
2016,06,19,19,27,16.00
2016,06,19,19,28,15.90
2016,06,19,19,29,15.80
2016,06,19,19,30,15.80
2016,06,19,19,31,15.70
2016,06,19,19,32,15.70
2016,06,19,19,33,15.70
2016,06,19,19,34,15.80
2016,06,19,19,35,15.90
2016,06,19,19,36,16.00
2016,06,19,19,37,16.10
2016,06,19,19,38,17.30
2016,06,19,19,42,16.90
2016,06,19,19,43,16.40
2016,06,19,19,44,16.20
2016,06,19,19,45,16.00
2016,06,19,19,46,15.90
2016,06,19,19,47,15.80
2016,06,19,19,48,15.60
2016,06,19,19,49,15.60
2016,06,19,19,50,15.50
2016,06,19,19,51,15.50
2016,06,19,19,52,15.50
2016,06,19,19,53,15.40
2016,06,19,19,54,15.40
2016,06,19,19,55,15.30
2016,06,19,19,56,15.30
2016,06,19,19,57,15.30
2016,06,19,19,58,15.30
2016,06,19,19,59,15.30
2016,06,19,20,00,15.20
2016,06,19,20,01,15.20
2016,06,19,20,02,15.10
2016,06,19,20,03,15.20
2016,06,19,20,04,15.10
2016,06,19,20,05,15.20
2016,06,19,20,06,15.10
2016,06,19,20,07,15.10
2016,06,19,20,08,15.10
2016,06,19,20,09,15.00
2016,06,19,20,10,15.00
2016,06,19,20,11,15.00
2016,06,19,20,12,15.00
2016,06,19,20,13,15.00
2016,06,19,20,14,15.00
2016,06,19,20,15,15.00
2016,06,19,20,16,15.00
2016,06,19,20,17,15.00
2016,06,19,20,18,15.00
2016,06,19,20,19,15.00
2016,06,19,20,20,15.00
2016,06,19,20,21,15.00
2016,06,19,20,22,15.00
2016,06,19,20,23,14.90
2016,06,19,20,24,14.90
2016,06,19,20,25,14.80
2016,06,19,20,26,14.80
2016,06,19,20,27,14.80
2016,06,19,20,28,14.80
2016,06,19,20,29,14.70
2016,06,19,20,30,14.70
2016,06,19,20,31,14.70
2016,06,19,20,32,14.70
2016,06,19,20,33,14.80
2016,06,19,20,34,14.70
2016,06,19,20,35,14.70
2016,06,19,20,36,14.70
2016,06,19,20,37,14.60
2016,06,19,20,38,14.60
2016,06,19,20,39,14.50
2016,06,19,20,40,14.50
2016,06,19,20,41,14.40
2016,06,19,20,42,14.40
2016,06,19,20,43,14.40
2016,06,19,20,44,14.30
2016,06,19,20,45,14.30
2016,06,19,20,46,14.30
2016,06,19,20,47,14.30
2016,06,19,20,48,14.20
2016,06,19,20,49,14.20
2016,06,19,20,50,14.20
2016,06,19,20,51,14.20
2016,06,19,20,52,14.20
2016,06,19,20,53,14.20
2016,06,19,20,54,14.20
2016,06,19,20,55,14.20
2016,06,19,20,56,14.20
2016,06,19,20,57,14.10
2016,06,19,20,58,14.10
2016,06,19,20,59,14.10
2016,06,19,21,00,14.00
2016,06,19,21,01,14.00
2016,06,19,21,02,14.00
2016,06,19,21,03,14.00
2016,06,19,21,04,13.90
2016,06,19,21,05,13.90
2016,06,19,21,06,13.90
2016,06,19,21,07,13.90
2016,06,19,21,08,13.90
2016,06,19,21,09,13.80
2016,06,19,21,10,13.80
2016,06,19,21,11,13.80
2016,06,19,21,12,13.70
2016,06,19,21,13,13.70
2016,06,19,21,14,13.70
2016,06,19,21,15,13.60
2016,06,19,21,16,13.60
2016,06,19,21,17,13.60
2016,06,19,21,18,13.60
2016,06,19,21,19,13.60
2016,06,19,21,20,13.50
2016,06,19,21,21,13.50
2016,06,19,21,22,13.50
2016,06,19,21,23,13.50
2016,06,19,21,24,13.40
2016,06,19,21,25,13.40
2016,06,19,21,26,13.40
2016,06,19,21,27,13.40
2016,06,19,21,28,13.40
2016,06,19,21,29,13.40
2016,06,19,21,30,13.40
2016,06,19,21,31,13.40
2016,06,19,21,32,13.40
2016,06,19,21,33,13.40
2016,06,19,21,34,13.40
2016,06,19,21,35,13.40
2016,06,19,21,36,13.30
2016,06,19,21,37,13.30
2016,06,19,21,38,13.20
2016,06,19,21,39,13.20
2016,06,19,21,40,13.20
2016,06,19,21,41,13.20
2016,06,19,21,42,13.20
2016,06,19,21,43,13.10
2016,06,19,21,44,13.10
2016,06,19,21,45,13.10
2016,06,19,21,46,13.10
2016,06,19,21,47,13.10
2016,06,19,21,48,13.10
2016,06,19,21,49,13.00
2016,06,19,21,50,13.00
2016,06,19,21,51,13.00
2016,06,19,21,52,13.00
2016,06,19,21,53,13.00
2016,06,19,21,54,13.00
2016,06,19,21,55,12.90
2016,06,19,21,56,12.90
2016,06,19,21,57,12.90
2016,06,19,21,58,12.90
2016,06,19,21,59,12.90
2016,06,19,22,00,12.90
2016,06,19,22,01,12.90
2016,06,19,22,02,12.90
2016,06,19,22,03,12.90
2016,06,19,22,04,12.90
2016,06,19,22,05,12.90
2016,06,19,22,06,12.90
2016,06,19,22,07,12.90
2016,06,19,22,08,12.90
2016,06,19,22,09,12.90
2016,06,19,22,10,12.90
2016,06,19,22,11,13.20
2016,06,19,22,12,13.30
2016,06,19,22,13,13.40
2016,06,19,22,14,13.30
2016,06,19,22,15,13.20
2016,06,19,22,16,13.20
2016,06,19,22,17,13.20
2016,06,19,22,18,13.10
2016,06,19,22,19,13.30
2016,06,19,22,20,13.30
2016,06,19,22,21,13.40
2016,06,19,22,22,13.40
2016,06,19,22,23,13.50
2016,06,19,22,24,13.70
2016,06,19,22,25,13.90
2016,06,19,22,26,13.60
2016,06,19,22,27,13.60
2016,06,19,22,28,13.50
2016,06,19,22,29,13.40
2016,06,19,22,30,13.30
2016,06,19,22,31,13.40
2016,06,19,22,32,13.40
2016,06,19,22,33,13.20
2016,06,19,22,34,13.10
2016,06,19,22,35,13.10
2016,06,19,22,36,13.00
2016,06,19,22,37,12.90
2016,06,19,22,38,13.00
2016,06,19,22,39,13.00
2016,06,19,22,40,13.00
2016,06,19,22,41,13.00
2016,06,19,22,42,13.00
2016,06,19,22,43,13.00
2016,06,19,22,44,13.10
2016,06,19,22,45,13.20
2016,06,19,22,46,13.20
2016,06,19,22,47,13.20
2016,06,19,22,48,13.20
2016,06,19,22,49,13.10
2016,06,19,22,50,13.10
2016,06,19,22,51,13.00
2016,06,19,22,52,13.00
2016,06,19,22,53,13.10
2016,06,19,22,54,13.20
2016,06,19,22,55,13.20
2016,06,19,22,56,13.20
2016,06,19,22,57,13.20
2016,06,19,22,58,13.30
2016,06,19,22,59,13.20
2016,06,19,23,00,13.20
2016,06,19,23,01,13.20